Location: Oshawa
(43.9000°N, 78.8670°W)
Time: 09:11:53
(UTC-04:00)

Courier 1B - All Passes

Search period start: 27 March 2015 00:00
Search period end: 06 April 2015 00:00
Orbit: 963 x 1209 km, 28.3° (Epoch: 27 March)

Date Brightness Start Highest point End Pass type
(mag) Time Alt. Az. Time Alt. Az. Time Alt. Az.
27 Mar - 01:19:08 10° SW 01:21:57 13° SSW 01:24:40 10° S night (unlit)
27 Mar - 20:38:59 10° SSW 20:42:38 15° SSE 20:46:18 10° SE visible
27 Mar - 22:31:02 10° SW 22:35:36 20° S 22:40:06 10° SE visible
28 Mar - 00:24:57 10° SW 00:28:32 15° SSW 00:32:01 10° SSE night (unlit)
28 Mar - 19:46:11 10° S 19:49:11 13° SSE 19:52:14 10° SE daylight
28 Mar - 21:37:33 10° SW 21:42:09 20° S 21:46:39 10° SE visible
28 Mar - 23:31:01 10° SW 23:35:06 17° S 23:39:06 10° SSE visible
29 Mar - 18:53:58 10° S 18:55:42 11° SSE 18:57:36 10° SE daylight
29 Mar - 20:44:09 10° SW 20:48:41 19° S 20:53:08 10° SE visible
29 Mar - 22:37:12 10° SW 22:41:40 19° S 22:46:00 10° SE visible
30 Mar - 00:32:59 10° SW 00:34:32 11° SSW 00:35:55 10° S night (unlit)
30 Mar - 19:50:50 10° SSW 19:55:12 18° S 19:59:30 10° SE daylight
30 Mar - 21:43:30 10° SW 21:48:13 20° S 21:52:48 10° SE visible
30 Mar - 23:38:04 10° SW 23:41:07 13° SSW 23:44:02 10° S visible
31 Mar - 18:57:40 10° SSW 19:01:42 16° SSE 19:05:42 10° SE daylight
31 Mar - 20:49:50 10° SW 20:54:44 21° S 20:59:29 10° SE visible
31 Mar - 22:43:49 10° SW 22:47:42 16° SSW 22:51:26 10° SSE visible
01 Apr - 18:04:46 10° SSW 18:08:12 14° SSE 18:11:40 10° SE daylight
01 Apr - 19:56:16 10° SW 20:01:15 21° S 20:06:03 10° SE daylight
01 Apr - 21:49:48 10° SW 21:54:15 18° S 21:58:32 10° SSE visible
02 Apr - 17:12:21 10° S 17:14:39 12° SSE 17:17:07 10° SE daylight
02 Apr - 19:02:46 10° SW 19:07:43 20° S 19:12:32 10° SE daylight
02 Apr - 20:55:55 10° SW 21:00:47 20° S 21:05:27 10° SE visible
02 Apr - 22:51:20 10° SW 22:53:41 12° SSW 22:55:49 10° S visible
03 Apr - 18:09:23 10° SSW 18:14:11 19° S 18:18:52 10° SE daylight
03 Apr - 20:02:07 10° SW 20:07:17 22° S 20:12:14 10° SE visible
03 Apr - 21:56:38 10° SW 22:00:15 15° SSW 22:03:40 10° SSE visible
04 Apr - 17:16:11 10° SSW 17:20:37 17° SSE 17:25:02 10° SE daylight
04 Apr - 19:08:24 10° SW 19:13:46 22° S 19:18:54 10° SE daylight
04 Apr - 21:02:22 10° SW 21:06:48 18° SSW 21:11:00 10° SSE visible
05 Apr - 16:23:14 10° SSW 16:27:03 15° SSE 16:30:56 10° SE daylight
05 Apr - 18:14:46 10° SW 18:20:12 22° S 18:25:26 10° SE daylight
05 Apr - 20:08:19 10° SW 20:13:18 20° S 20:18:02 10° SSE visible
05 Apr - 22:05:26 10° SSW 22:06:11 10° SSW 22:06:44 10° SSW visible
